Regional Weather Roundup
Issued by NWS

Home | Current Version | Previous Version | Graphics & Text | Print | Product List | Glossary On
Versions: 1 2 3 4 5 6 7 8 9 10 11 12 13 14 15 16 17 18 19 20 21 22 23 24 25 26 27 28 29 30 31 32 33 34 35 36 37 38 39 40 41 42 43 44 45 46 47 48 49 50
000
ASUS43 KBIS 270520
RWRND

NORTH DAKOTA REGIONAL WEATHER ROUNDUP
NATIONAL WEATHER SERVICE BISMARCK ND
1200 AM CDT WED MAY 27 2015

NOTE: "FAIR" INDICATES FEW OR NO CLOUDS BELOW 12,000 FEET WITH NO
SIGNIFICANT WEATHER AND/OR OBSTRUCTIONS TO VISIBILITY.


NDZ001>003-009>011-017-270600-
NORTHWEST NORTH DAKOTA

CITY           SKY/WX    TMP DP  RH WIND       PRES   REMARKS
WILLISTON      PTCLDY    66  44  45 SE7       29.90S
MINOT          CLEAR     61  46  57 SW10      29.86F
MINOT AFB      PTCLDY    57  54  89 W9        29.86S
$$

NDZ018>021-031>035-040>046-270600-
SOUTHWEST NORTH DAKOTA

CITY           SKY/WX    TMP DP  RH WIND       PRES   REMARKS
BISMARCK       CLEAR     61  51  70 CALM      29.91S
DICKINSON      PTCLDY    52  42  69 S8        29.93S
GARRISON         N/A     57  48  72 CALM      29.90S
HETTINGER ARPT CLEAR     53  46  77 CALM      29.97S
$$

NDZ004>008-012>016-024-026-027-054-270600-
NORTHEAST NORTH DAKOTA

CITY           SKY/WX    TMP DP  RH WIND       PRES   REMARKS
GRAND FORKS    PTCLDY    65  51  60 NW7       29.77R
GRND FRKS AFB  MOCLDY    63  49  60 NW8       29.78R
DEVILS LAKE    CLEAR     61  45  55 W6        29.85R
$$

NDZ022-023-025-028>030-036>039-047>053-270600-
SOUTHEAST NORTH DAKOTA

CITY           SKY/WX    TMP DP  RH WIND       PRES   REMARKS
FARGO          PTCLDY    59  53  80 S7        29.78F
JAMESTOWN      PTCLDY    60  47  61 NW8       29.85R
$$




USA.gov is the U.S. government's official web portal to all federal, state and local government web resources and services.